Find Starlink 5697

NORAD ID: 55589 Int'l Des: 2023-020 Owner: SPXS Country: US Constellation: starlink operational
LEOCIRCULAR

Live-Position

3D-Globus wird geladen...

Über Starlink 5697

Beschreibung wird geladen...

Nächste Überflüge

Passes for default location (London). Set your location on the main map for personalized predictions.

Höhenverlauf

Loading altitude history...

Zweizeiliger Elementsatz

1 55589U 23020W 26125.12461221 .00000393 00000-0 23823-4 0 9991
2 55589 43.0043 46.4926 0001185 246.0271 114.0457 15.27575713177545
Epoch: 5. Mai 2026 • Age: 27 hours

Aktueller Status

Höhe 486.9 km
Geschwindigkeit 7.63 km/s
Subsatellitenpunkt 42.67°N, 164.96°E
Startdatum 12. Feb. 2023
Alter 3.2 years
Typ internet

Technische Details

Klassifizierung Payload
Masse 305.00 kg
Trockenmasse 290.00 kg
Gesamtmasse 305.00 kg
Länge 0.20 m
Durchmesser 2.80 m
Spannweite 9.00 m
Form Box + pan
Hersteller SPXS
Bus-Typ Starlink
Phasenstatus In Orbit
Besitzer/Staat SPXS/US

Most Searched